User: anonymous   Login
Location: Unspecified
(0.0000°N, 0.0000°E)
Time: 22:49:38
(UTC+01:00)
Language:

Cosmos 407 Rocket - Orbit

View from above orbital plane
View from above orbital plane
View from above satellite
View from above satellite

Ground track
Ground track

The orbit data is extracted from the following two-line orbital elements,

1  5175U 71035B   18021.87012949 +.00000084 +00000-0 +36346-4 0  9994
2  5175 074.0475 166.7848 0030735 319.9550 039.9337 14.37888431446125
Epoch (UTC): 21 January 2018 20:52:59
Eccentricity: 0.0030735
inclination: 74.0475°
perigee height: 743 km
apogee height: 787 km
right ascension of ascending node: 166.7848°
argument of perigee: 319.9550°
revolutions per day: 14.37888431
mean anomaly at epoch: 39.9337°
orbit number at epoch: 44612

The dashed part of the orbit path shows where the satellite is in the earth's shadow,  

DLR